Presure
209 197 241 199 214 202 199 191 202 184 193 214 170 251 212 231 241 278 273 271 256 217 207 260 239 223 216 212 209 193 208 199 199 201 220 218 214 209 191 204 201 195 212
204 215 257 232 254 232 258 208 220 210 202 207 212 254 206 230 196 230 267 265 260 267 263 218 207 235 236 226 215 212 206 203 207 188 186 206 207 198 209 205 201 202 194
229 226 210 249 246 224 237 200 236 215 211 181 243 243 247 239 193 218 206 232 266 258 261 253 252 252 211 213 223 224 234 226 215 208 205 199 186 194 195 202 204 208 211
215 231 207 266 257 259 216 246 195 203 239 203 245 237 236 244 233 220 226 231 219 269 258 257 260 250 240 213 231 204 205 212 218 223 216 214 210 207 208 207 207 198 196
221 232 250 270 261 254 253 195 235 196 237 252 237 241 237 234 231 201 180 194 216 224 242 263 251 250 256 256 248 242 253 251 202 201 240 197 218 194 193 195 193 185 200
255 234 264 265 257 254 251 245 244 237 209 243 220 232 232 233 239 228 208 215 211 195 200 190 226 240 256 260 258 259 253 255 246 251 247 217 232 233 215 207 192 208 221
245 255 264 264 261 252 253 248 238 233 249 240 228 217 235 232 232 239 229 218 181 216 226 228 219 219 234 228 223 240 262 264 250 247 242 243 248 240 236 230 218 224 225
256 260 266 267 261 255 246 248 246 239 237 237 230 211 253 237 228 237 230 230 225 226 219 212 229 230 228 234 239 250 253 248 245 283 285 259 251 239 238 242 238 226 232
260 266 266 265 259 258 246 245 249 241 244 224 226 229 248 244 231 227 234 227 239 220 227 220 222 215 235 192 221 240 239 257 268 225 217 281 295 282 263 249 239 235 234
263 266 267 269 260 253 246 245 243 240 215 240 234 227 245 244 241 229 228 209 223 227 224 237 241 248 232 227 217 246 247 215 260 267 271 287 285 241 290 299 272 253 243
265 265 273 254 253 255 247 248 242 241 234 236 235 226 228 237 247 233 233 241 217 216 225 228 240 236 241 240 249 257 246 263 273 267 255 278 279 285 269 281 286 298 283
270 274 271 260 261 258 250 248 250 249 236 259 244 234 236 247 253 236 233 235 234 225 227 232 239 238 241 244 251 185 252 264 263 264 261 280 292 248 261 297 282 284 281
270 274 265 255 258 253 257 256 243 267 265 257 257 243 238 241 255 229 236 230 240 229 221 220 234 233 190 242 251 253 260 265 272 263 273 276 277 291 244 282 277 267 283
276 270 261 253 261 268 263 284 291 274 268 259 257 254 247 266 272 250 227 230 238 232 230 228 241 240 245 246 253 260 265 268 268 266 279 279 301 290 287 279 278 284 275
279 264 262 263 272 299 310 292 279 271 261 257 251 251 255 273 262 248 242 233 233 248 239 238 239 237 248 250 256 267 268 280 272 271 284 297 297 279 267 263 275 275 300
271 267 274 285 301 305 294 283 274 267 264 256 259 284 268 264 251 248 248 245 254 247 240 240 245 241 252 261 275 279 274 270 284 360 340 293 286 281 285 281 279 293 290
295 312 306 306 291 296 287 277 273 266 265 273 283 276 266 253 252 253 252 258 243 239 244 246 245 250 256 270 273 269 289 358 343 330 321 316 314 305 295 299 292 286 284
298 308 309 294 298 292 288 279 277 278 286 283 275 269 271 262 253 256 253 249 246 244 244 250 250 264 266 263 269 360 340 324 310 303 300 300 299 299 293 286 283 278 272
265 290 286 250 242 227 221 224 287 289 282 279 273 264 248 257 261 241 241 242 248 250 251 260 269 268 262 275 352 327 310 295 288 285 290 289 282 282 286 275 269 263 256
285 284 254 238 228 229 243 241 231 236 238 241 249 251 249 260 258 257 256 252 255 259 263 265 260 266 274 347 319 302 286 280 285 285 282 285 282 276 267 260 254 251 244
261 264 250 241 232 224 229 236 238 237 237 239 247 262 258 259 257 257 257 261 262 262 263 266 274 278 346 313 298 281 278 280 279 278 274 271 266 263 256 254 246 242 239
258 256 248 239 229 225 226 240 249 248 240 242 252 258 260 259 259 260 260 259 262 265 271 269 297 340 313 303 280 275 277 275 269 269 266 264 262 255 252 244 239 235 233
271 256 247 237 231 227 233 249 252 254 246 245 262 258 255 257 260 265 265 263 271 273 288 298 336 270 294 279 267 276 272 272 264 262 261 257 254 250 241 239 234 233 230
263 258 254 241 228 231 251 257 259 250 242 252 268 261 264 270 267 265 274 276 287 299 299 334 315 296 277 267 277 266 276 270 261 253 255 253 244 240 236 232 230 230 230
262 256 246 234 235 256 271 271 255 249 251 285 283 274 274 276 275 276 286 301 292 318 322 316 270 277 276 278 267 264 261 268 257 254 247 242 235 233 229 229 233 236 239
258 250 239 243 285 284 277 265 255 272 296 289 286 284 283 282 284 295 293 304 313 311 319 237 286 270 278 264 262 261 271 262 253 246 237 236 230 230 230 236 232 233 235
Wind_Speed
69 46 83 47 54 47 46 43 42 43 40 40 53 35 46 39 35 38 45 52 66 79 80 75 87 88 89 90 90 91 90 92 94 95 87 87 90 91 87 86 84 82 83
69 78 78 74 64 58 44 50 48 45 42 42 42 36 51 42 53 41 39 48 51 54 62 79 83 85 92 90 90 92 93 94 92 93 93 94 94 90 90 89 88 88 83
82 88 65 69 64 50 45 52 46 49 43 51 40 39 39 42 61 49 52 45 47 50 57 63 69 75 84 84 87 91 95 94 93 94 95 96 91 94 93 93 92 89 88
83 85 66 61 53 46 51 43 53 50 44 47 41 42 40 41 45 48 48 45 53 53 52 54 65 69 73 85 85 89 88 89 90 94 97 98 97 97 98 97 98 93 92
85 81 75 60 49 48 46 55 50 53 44 47 40 43 43 42 49 59 58 59 54 52 42 44 53 58 63 71 78 80 81 87 91 92 96 92 100 93 94 96 93 86 97
74 79 63 59 50 48 46 47 46 45 53 48 43 44 46 44 46 52 52 57 59 63 59 61 55 51 51 58 65 72 75 79 86 87 91 94 96 99 98 97 96 97 105
75 68 60 57 51 48 46 46 47 47 52 50 45 48 52 48 49 51 55 58 61 58 54 55 60 60 57 61 65 62 61 71 81 85 88 88 89 93 95 96 98 100 101
72 66 58 56 49 49 48 47 47 49 49 50 49 50 53 50 49 54 54 56 59 58 59 61 57 59 62 61 60 57 59 66 70 69 80 89 92 92 92 90 91 93 91
70 62 56 55 51 48 48 48 49 50 54 52 53 54 57 57 56 55 56 56 54 60 59 63 63 63 63 67 61 62 66 59 58 74 77 72 75 89 94 94 93 91 90
66 61 56 54 51 49 48 50 50 51 56 58 58 57 59 55 60 58 59 57 58 58 62 59 61 59 65 64 62 62 64 58 59 57 59 64 69 75 74 80 91 93 93
64 60 57 52 52 52 51 52 53 55 57 59 62 59 59 59 62 64 60 61 63 64 64 63 62 63 63 64 63 63 61 59 58 58 59 61 63 68 72 72 73 78 87
64 60 53 50 51 52 54 55 55 57 59 64 65 64 64 65 63 66 65 62 62 66 66 65 64 64 62 62 63 54 62 63 60 60 58 62 63 62 63 65 69 68 72
65 60 51 50 50 53 56 57 57 58 60 61 66 69 67 64 65 67 67 67 61 66 65 64 67 66 52 64 64 65 67 65 64 61 63 64 60 62 68 64 63 65 64
62 57 54 54 56 56 57 55 48 50 53 57 62 67 69 64 59 68 61 65 64 65 67 68 66 66 64 64 65 67 67 67 65 62 65 63 60 57 56 56 57 55 60
56 57 57 56 54 52 46 46 48 48 51 55 60 62 60 52 54 63 67 65 66 65 65 66 66 64 67 67 69 69 68 66 65 62 63 58 54 52 54 55 52 51 47
57 60 61 54 49 41 42 45 47 49 49 54 58 52 50 51 55 61 67 66 64 64 66 66 66 65 68 72 69 68 64 62 64 45 43 51 50 50 49 48 46 43 44
58 53 50 44 42 40 40 43 44 46 49 51 48 49 49 51 54 61 63 64 63 62 65 66 65 65 68 66 62 61 62 39 35 33 34 35 35 37 39 39 37 39 38
49 44 40 37 36 37 38 43 44 45 46 43 42 46 50 52 55 58 59 60 61 62 63 64 65 67 62 58 59 40 34 30 27 28 28 28 29 30 31 32 33 33 32
45 41 36 36 36 37 37 37 41 41 41 41 44 43 41 50 53 51 54 58 61 61 63 65 64 60 56 57 36 31 26 25 25 26 26 24 26 27 27 29 31 29 28
40 38 39 40 41 39 35 35 36 35 35 36 38 41 44 51 53 56 58 60 61 63 62 59 56 56 53 34 31 25 25 26 23 21 23 22 23 25 27 29 29 29 30
42 41 43 42 43 43 41 40 39 38 38 39 40 46 48 51 53 55 57 59 59 58 57 55 53 50 34 29 25 25 25 24 21 19 21 22 24 27 29 28 29 28 29
45 45 45 45 44 45 44 43 42 41 41 41 43 47 49 50 52 54 56 56 56 56 55 50 50 35 28 24 24 24 24 23 22 22 21 23 25 26 27 27 28 29 31
45 46 46 47 46 46 47 46 45 44 43 44 48 47 48 50 53 55 54 54 54 54 53 46 35 33 25 23 24 23 23 26 25 24 22 23 24 25 26 26 28 29 32
46 47 48 48 48 49 49 48 47 47 45 46 50 49 51 54 53 52 53 52 52 48 43 33 28 24 25 24 23 22 23 25 25 24 23 22 22 22 24 26 29 33 36
47 47 49 50 50 50 47 47 48 47 47 52 52 51 51 52 51 50 50 48 43 38 32 27 26 25 23 23 22 22 22 23 25 23 21 20 22 24 27 29 31 34 35
49 49 50 52 47 47 48 48 48 49 52 52 51 50 49 50 49 49 44 43 36 32 28 28 25 25 22 23 22 23 23 22 20 19 22 24 26 27 29 30 32 35 37
Wind_Direction
314 303 320 297 309 296 290 282 286 266 271 299 261 278 255 263 260 261 256 249 247 245 248 244 248 249 250 250 250 251 253 255 258 260 261 261 261 263 264 266 267 268 267
313 314 322 314 315 307 296 288 296 283 282 286 275 273 261 261 253 256 258 254 254 253 248 247 247 248 251 251 251 251 252 253 253 259 264 263 265 265 268 268 267 267 267
316 312 307 312 310 296 289 285 292 289 283 275 279 271 266 263 254 257 252 256 257 255 251 248 248 247 249 251 253 255 256 256 256 258 258 261 268 269 270 270 271 272 274
311 314 307 306 304 291 281 277 284 286 281 287 274 271 270 261 261 255 256 258 254 256 258 255 252 250 251 252 251 252 254 256 256 255 257 259 261 264 266 268 270 273 275
308 310 311 299 293 284 276 283 274 287 275 266 270 264 262 266 255 258 256 258 251 257 261 262 259 258 257 254 253 253 254 253 257 256 254 258 258 261 263 266 266 269 270
316 309 304 293 288 279 272 268 266 267 281 263 271 266 265 261 262 253 258 254 252 255 257 256 256 258 260 262 262 260 259 259 257 258 257 256 256 258 259 262 266 264 263
312 306 298 289 283 276 272 268 266 263 262 260 262 269 257 261 258 258 254 256 263 260 262 262 258 258 261 259 257 260 262 260 256 257 256 256 257 256 257 257 259 261 263
307 301 294 288 281 274 273 269 264 261 260 256 259 267 260 255 256 262 256 257 257 259 261 255 264 265 262 265 265 266 264 262 261 262 260 258 256 256 257 257 257 258 260
303 296 290 284 279 275 271 269 265 262 257 259 257 260 266 266 253 255 256 258 259 260 260 261 262 258 265 260 267 271 267 274 268 261 261 262 263 259 257 256 257 257 258
300 294 288 281 274 271 267 266 262 259 263 254 252 257 264 265 247 253 255 259 260 261 260 266 266 268 265 265 267 274 272 271 276 269 268 267 265 260 262 261 258 257 256
297 291 284 279 275 271 268 266 263 260 259 259 256 259 259 260 249 253 252 262 258 260 263 265 268 268 271 271 276 280 274 281 281 274 269 268 265 265 263 261 260 258 255
296 291 282 279 274 270 268 266 264 262 260 256 254 256 257 260 248 251 255 254 256 260 264 267 268 270 273 275 279 268 279 282 278 274 271 274 269 260 262 266 262 263 262
295 289 282 279 275 271 268 267 266 262 258 257 256 255 257 258 253 252 254 259 258 259 264 266 269 270 267 278 282 281 283 283 281 277 279 277 273 268 261 263 262 262 264
290 283 281 283 280 273 270 265 255 252 252 253 255 257 259 263 255 246 257 260 260 261 264 267 272 275 279 280 282 283 284 282 279 279 280 278 272 267 265 263 262 263 263
286 282 283 282 278 277 261 249 249 248 250 251 254 256 262 254 248 247 251 257 260 260 266 269 272 276 280 282 284 284 283 283 280 280 278 273 268 263 261 261 263 261 257
286 284 282 278 278 266 252 247 249 250 253 253 257 255 249 248 250 251 255 260 259 262 266 271 276 277 282 286 286 286 284 282 281 273 269 267 265 262 260 260 259 254 253
292 286 279 274 272 263 252 251 252 255 257 258 255 245 244 248 251 254 258 259 263 267 271 273 276 281 285 287 286 286 286 278 274 269 264 262 259 255 255 253 248 248 247
288 282 273 271 267 261 255 255 256 256 255 252 252 246 246 247 252 255 258 263 267 270 273 276 280 284 284 285 287 283 276 271 266 262 260 256 253 250 246 241 238 240 240
283 278 271 272 273 275 275 273 256 253 250 250 250 253 260 258 256 266 267 269 271 274 277 280 282 283 284 287 280 274 267 263 259 258 254 250 247 243 235 233 232 235 236
277 271 266 269 271 273 272 271 270 267 267 268 266 264 265 261 262 264 266 270 274 276 278 280 282 284 286 280 271 262 260 257 252 249 245 238 230 226 226 230 232 235 239
272 267 265 267 270 273 273 271 269 268 267 268 268 260 262 263 266 268 271 273 275 277 279 281 284 286 281 268 259 259 256 247 243 236 231 226 228 229 229 234 237 242 249
269 267 266 267 268 271 274 273 270 267 267 269 267 265 265 267 270 272 273 274 275 278 280 281 288 281 267 256 253 253 245 242 234 229 228 231 232 232 235 238 245 250 256
267 264 265 267 270 272 274 271 269 268 267 268 265 268 269 270 270 270 272 276 278 279 284 285 280 272 252 249 253 249 247 239 235 235 231 232 236 236 241 249 253 260 265
263 262 263 265 269 271 269 266 265 265 268 267 261 264 265 266 268 272 274 277 281 281 282 278 265 249 249 250 244 242 244 237 236 238 239 240 242 248 253 259 262 265 268
263 263 263 266 268 267 262 260 263 265 266 257 257 261 264 266 269 272 276 278 279 280 274 264 259 247 249 240 236 238 242 240 234 239 242 244 247 251 255 262 270 275 278
263 263 265 266 261 260 260 259 262 260 254 256 258 261 265 267 269 273 273 276 276 271 264 268 238 242 237 235 237 240 235 228 233 235 240 244 251 259 266 272 275 279 279